| time (UTC) | temp F | wind direction | speed knots | gust knots | rain 1hr in | rain 24hr in | rain mn in | humidity % | barometer mb |
| 20260508044003 | 60 | 260 | 4.3 | 7.0 | 0.00 | 0.00 | 0.00 | 17 | 1017.1 |
| 20260508043524 | 60 | 268 | 3.5 | 7.0 | 0.00 | 0.00 | 0.00 | 16 | 1017.0 |
| 20260508043025 | 60 | 269 | 3.5 | 5.2 | 0.00 | 0.00 | 0.00 | 16 | 1016.9 |
| 20260508042503 | 60 | 269 | 3.5 | 5.2 | 0.00 | 0.00 | 0.00 | 16 | 1017.0 |
| 20260508042004 | 59 | 269 | 4.3 | 5.2 | 0.00 | 0.00 | 0.00 | 16 | 1017.0 |
| 20260508041504 | 60 | 269 | 3.5 | 5.2 | 0.00 | 0.00 | 0.00 | 16 | 1016.9 |
| 20260508041003 | 60 | 269 | 3.5 | 5.2 | 0.00 | 0.00 | 0.00 | 16 | 1016.8 |
| 20260508040503 | 62 | 269 | 3.5 | 5.2 | 0.00 | 0.00 | 0.00 | 15 | 1016.9 |
| 20260508040003 | 62 | 269 | 3.5 | 5.2 | 0.00 | 0.00 | 0.00 | 14 | 1016.9 |
| 20260508035503 | 61 | 269 | 3.5 | 5.2 | 0.00 | 0.00 | 0.00 | 15 | 1017.0 |
| 20260508035003 | 60 | 269 | 3.5 | 5.2 | 0.00 | 0.00 | 0.00 | 16 | 1016.9 |
| 20260508034503 | 59 | 269 | 4.3 | 5.2 | 0.00 | 0.00 | 0.00 | 16 | 1016.9 |
| 20260508034003 | 59 | 269 | 4.3 | 6.1 | 0.00 | 0.00 | 0.00 | 16 | 1016.8 |
| 20260508033503 | 60 | 269 | 4.3 | 6.1 | 0.00 | 0.00 | 0.00 | 16 | 1016.9 |
| 20260508033003 | 61 | 269 | 4.3 | 6.1 | 0.00 | 0.00 | 0.00 | 15 | 1016.7 |
| 20260508032503 | 63 | 268 | 4.3 | 6.1 | 0.00 | 0.00 | 0.00 | 14 | 1016.4 |
| 20260508032003 | 64 | 267 | 4.3 | 6.1 | 0.00 | 0.00 | 0.00 | 13 | 1016.4 |
| 20260508031524 | 64 | 267 | 5.2 | 6.1 | 0.00 | 0.00 | 0.00 | 13 | 1016.4 |
| 20260508031003 | 64 | 266 | 4.3 | 6.1 | 0.00 | 0.00 | 0.00 | 12 | 1016.2 |
| 20260508030524 | 64 | 265 | 4.3 | 6.1 | 0.00 | 0.00 | 0.00 | 12 | 1016.1 |
| 20260508030003 | 64 | 265 | 3.5 | 5.2 | 0.00 | 0.00 | 0.00 | 12 | 1016.1 |
| 20260508025503 | 65 | 265 | 3.5 | 3.5 | 0.00 | 0.00 | 0.00 | 12 | 1016.1 |
| 20260508025003 | 66 | 265 | 2.6 | 3.5 | 0.00 | 0.00 | 0.00 | 12 | 1015.8 |
| 20260508024503 | 66 | 264 | 1.7 | 2.6 | 0.00 | 0.00 | 0.00 | 11 | 1016.1 |
| 20260508024024 | 67 | 264 | 0.9 | 1.7 | 0.00 | 0.00 | 0.00 | 11 | 1015.8 |
| 20260508023503 | 68 | 264 | 1.7 | 2.6 | 0.00 | 0.00 | 0.00 | 11 | 1015.5 |
| 20260508023003 | 68 | 264 | 1.7 | 2.6 | 0.00 | 0.00 | 0.00 | 10 | 1015.5 |
| 20260508022524 | 68 | 264 | 1.7 | 1.7 | 0.00 | 0.00 | 0.00 | 10 | 1015.6 |
| 20260508022003 | 68 | 264 | 0.9 | 1.7 | 0.00 | 0.00 | 0.00 | 11 | 1015.7 |
| 20260508021503 | 69 | 264 | 0.9 | 3.5 | 0.00 | 0.00 | 0.00 | 11 | 1015.4 |
| 20260508021003 | 70 | 264 | 0.9 | 5.2 | 0.00 | 0.00 | 0.00 | 10 | 1015.4 |
| 20260508020503 | 70 | 264 | 0.9 | 5.2 | 0.00 | 0.00 | 0.00 | 12 | 1015.6 |
| 20260508020003 | 71 | 263 | 0.9 | 2.6 | 0.00 | 0.00 | 0.00 | 12 | 1015.4 |
| 20260508015503 | 71 | 263 | 0.9 | 1.7 | 0.00 | 0.00 | 0.00 | 15 | 1015.4 |
| 20260508015003 | 72 | 263 | 0.9 | 2.6 | 0.00 | 0.00 | 0.00 | 13 | 1015.4 |
| 20260508014503 | 73 | 263 | 1.7 | 2.6 | 0.00 | 0.00 | 0.00 | 13 | 1015.5 |
| 20260508014003 | 74 | 261 | 1.7 | 2.6 | 0.00 | 0.00 | 0.00 | 13 | 1015.3 |
| 20260508013503 | 74 | 258 | 1.7 | 3.5 | 0.00 | 0.00 | 0.00 | 12 | 1015.0 |
| 20260508013003 | 74 | 246 | 2.6 | 5.2 | 0.00 | 0.00 | 0.00 | 13 | 1015.1 |
| 20260508012503 | 74 | 228 | 3.5 | 6.1 | 0.00 | 0.00 | 0.00 | 13 | 1015.0 |
| 20260508012004 | 74 | 232 | 4.3 | 7.0 | 0.00 | 0.00 | 0.00 | 12 | 1014.7 |
| 20260508011503 | 74 | 241 | 4.3 | 7.0 | 0.00 | 0.00 | 0.00 | 12 | 1014.9 |
| 20260508011024 | 75 | 235 | 4.3 | 7.8 | 0.00 | 0.00 | 0.00 | 12 | 1014.9 |
| 20260508010503 | 75 | 234 | 4.3 | 7.8 | 0.00 | 0.00 | 0.00 | 12 | 1014.7 |
| 20260508010003 | 75 | 240 | 2.6 | 7.0 | 0.00 | 0.00 | 0.00 | 12 | 1014.8 |
| 20260508005503 | 75 | 204 | 3.5 | 7.0 | 0.00 | 0.00 | 0.00 | 12 | 1014.6 |
| 20260508005003 | 75 | 171 | 4.3 | 7.8 | 0.00 | 0.00 | 0.00 | 13 | 1014.7 |
| 20260508004503 | 75 | 176 | 5.2 | 9.6 | 0.00 | 0.00 | 0.00 | 13 | 1014.8 |
| 20260508004024 | 75 | 180 | 6.1 | 9.6 | 0.00 | 0.00 | 0.00 | 13 | 1014.6 |
| 20260508003503 | 76 | 166 | 6.1 | 11.3 | 0.00 | 0.00 | 0.00 | 13 | 1014.7 |
| 20260508003003 | 75 | 164 | 5.2 | 11.3 | 0.00 | 0.00 | 0.00 | 13 | 1014.8 |
| 20260508002525 | 76 | 177 | 6.1 | 12.2 | 0.00 | 0.00 | 0.00 | 13 | 1014.8 |
| 20260508002003 | 75 | 175 | 6.1 | 12.2 | 0.00 | 0.00 | 0.00 | 13 | 1014.7 |
| 20260508001503 | 76 | 186 | 4.3 | 8.7 | 0.00 | 0.00 | 0.00 | 13 | 1014.7 |
| 20260508001003 | 76 | 232 | 4.3 | 8.7 | 0.00 | 0.00 | 0.00 | 12 | 1014.6 |
| 20260508000524 | 76 | 261 | 4.3 | 8.7 | 0.00 | 0.00 | 0.00 | 12 | 1014.7 |
| 20260508000003 | 77 | 283 | 1.7 | 5.2 | 0.00 | 0.00 | 0.00 | 11 | 1014.8 |
| 20260507235504 | 78 | 231 | 2.6 | 7.0 | 0.00 | 0.00 | 0.00 | 11 | 1015.0 |
| 20260507235003 | 76 | 189 | 3.5 | 7.0 | 0.00 | 0.00 | 0.00 | 12 | 1014.9 |
| 20260507234504 | 76 | 204 | 2.6 | 7.0 | 0.00 | 0.00 | 0.00 | 10 | 1014.9 |
| 20260507234003 | 77 | 249 | 1.7 | 7.0 | 0.00 | 0.00 | 0.00 | 11 | 1015.0 |
| 20260507233503 | 76 | 214 | 2.6 | 7.0 | 0.00 | 0.00 | 0.00 | 11 | 1015.1 |
| 20260507233024 | 76 | 195 | 4.3 | 7.0 | 0.00 | 0.00 | 0.00 | 10 | 1015.0 |
| 20260507232503 | 76 | 178 | 4.3 | 8.7 | 0.00 | 0.00 | 0.00 | 10 | 1015.0 |
| 20260507232003 | 76 | 184 | 5.2 | 8.7 | 0.00 | 0.00 | 0.00 | 12 | 1015.3 |
| 20260507231503 | 76 | 199 | 6.1 | 14.8 | 0.00 | 0.00 | 0.00 | 12 | 1015.3 |
| 20260507231003 | 76 | 195 | 6.1 | 14.8 | 0.00 | 0.00 | 0.00 | 12 | 1015.1 |
| 20260507230503 | 76 | 181 | 5.2 | 14.8 | 0.00 | 0.00 | 0.00 | 11 | 1015.0 |
| 20260507230004 | 76 | 189 | 5.2 | 9.6 | 0.00 | 0.00 | 0.00 | 12 | 1015.4 |
| 20260507225524 | 75 | 192 | 5.2 | 9.6 | 0.00 | 0.00 | 0.00 | 12 | 1015.4 |
| 20260507225003 | 76 | 186 | 4.3 | 8.7 | 0.00 | 0.00 | 0.00 | 12 | 1015.6 |
| 20260507224503 | 77 | 182 | 3.5 | 7.8 | 0.00 | 0.00 | 0.00 | 12 | 1015.5 |
| 20260507224003 | 75 | 170 | 4.3 | 8.7 | 0.00 | 0.00 | 0.00 | 11 | 1015.5 |
| 20260507223504 | 76 | 163 | 4.3 | 8.7 | 0.00 | 0.00 | 0.00 | 12 | 1015.7 |
| 20260507223003 | 75 | 169 | 4.3 | 12.2 | 0.00 | 0.00 | 0.00 | 12 | 1015.7 |
| 20260507222504 | 77 | 162 | 3.5 | 12.2 | 0.00 | 0.00 | 0.00 | 12 | 1015.6 |
| 20260507222003 | 76 | 174 | 2.6 | 7.0 | 0.00 | 0.00 | 0.00 | 11 | 1015.8 |
| 20260507221503 | 76 | 185 | 2.6 | 7.0 | 0.00 | 0.00 | 0.00 | 11 | 1016.0 |
| 20260507221003 | 77 | 190 | 2.6 | 13.0 | 0.00 | 0.00 | 0.00 | 11 | 1015.8 |
| 20260507220503 | 74 | 193 | 4.3 | 13.0 | 0.00 | 0.00 | 0.00 | 12 | 1016.1 |
| 20260507220003 | 75 | 172 | 5.2 | 9.6 | 0.00 | 0.00 | 0.00 | 12 | 1016.1 |
| 20260507215503 | 76 | 150 | 5.2 | 13.9 | 0.00 | 0.00 | 0.00 | 12 | 1016.3 |
| 20260507215003 | 75 | 165 | 7.0 | 13.9 | 0.00 | 0.00 | 0.00 | 14 | 1016.3 |
| 20260507214524 | 74 | 174 | 6.1 | 13.0 | 0.00 | 0.00 | 0.00 | 12 | 1016.4 |
| 20260507214004 | 75 | 182 | 4.3 | 9.6 | 0.00 | 0.00 | 0.00 | 12 | 1016.4 |
| 20260507213503 | 74 | 176 | 5.2 | 12.2 | 0.00 | 0.00 | 0.00 | 13 | 1016.7 |
| 20260507213024 | 75 | 152 | 4.3 | 12.2 | 0.00 | 0.00 | 0.00 | 13 | 1016.8 |
| 20260507212503 | 74 | 131 | 3.5 | 8.7 | 0.00 | 0.00 | 0.00 | 14 | 1017.0 |
| 20260507212003 | 74 | 158 | 4.3 | 9.6 | 0.00 | 0.00 | 0.00 | 15 | 1017.0 |
| 20260507211503 | 74 | 167 | 4.3 | 9.6 | 0.00 | 0.00 | 0.00 | 15 | 1017.1 |
| 20260507211003 | 72 | 159 | 3.5 | 9.6 | 0.00 | 0.00 | 0.00 | 15 | 1017.4 |
| 20260507210503 | 72 | 165 | 4.3 | 9.6 | 0.00 | 0.00 | 0.00 | 16 | 1017.6 |
| 20260507210003 | 73 | 178 | 4.3 | 9.6 | 0.00 | 0.00 | 0.00 | 16 | 1017.6 |
| 20260507205504 | 74 | 164 | 2.6 | 9.6 | 0.00 | 0.00 | 0.00 | 14 | 1017.5 |
| 20260507205004 | 73 | 173 | 1.7 | 3.5 | 0.00 | 0.00 | 0.00 | 17 | 1017.7 |
| 20260507204503 | 72 | 180 | 1.7 | 6.1 | 0.00 | 0.00 | 0.00 | 16 | 1017.8 |
| 20260507204003 | 73 | 132 | 1.7 | 7.0 | 0.00 | 0.00 | 0.00 | 17 | 1018.0 |
| 20260507203503 | 73 | 131 | 2.6 | 7.0 | 0.00 | 0.00 | 0.00 | 17 | 1018.1 |
| 20260507203003 | 72 | 142 | 4.3 | 11.3 | 0.00 | 0.00 | 0.00 | 16 | 1017.8 |
| 20260507202503 | 71 | 154 | 5.2 | 11.3 | 0.00 | 0.00 | 0.00 | 17 | 1018.1 |
| 20260507202003 | 70 | 152 | 5.2 | 11.3 | 0.00 | 0.00 | 0.00 | 19 | 1018.3 |
| 20260507201503 | 70 | 157 | 5.2 | 11.3 | 0.00 | 0.00 | 0.00 | 17 | 1018.3 |
| 20260507201003 | 71 | 180 | 5.2 | 11.3 | 0.00 | 0.00 | 0.00 | 19 | 1018.5 |
| 20260507200503 | 71 | 180 | 5.2 | 11.3 | 0.00 | 0.00 | 0.00 | 19 | 1018.7 |
| 20260507200003 | 70 | 161 | 3.5 | 8.7 | 0.00 | 0.00 | 0.00 | 20 | 1018.5 |
| 20260507195503 | 72 | 116 | 2.6 | 8.7 | 0.00 | 0.00 | 0.00 | 19 | 1018.9 |
| 20260507195004 | 71 | 140 | 4.3 | 7.8 | 0.00 | 0.00 | 0.00 | 20 | 1018.9 |
| 20260507194503 | 69 | 158 | 4.3 | 9.6 | 0.00 | 0.00 | 0.00 | 20 | 1019.0 |
| 20260507194003 | 69 | 139 | 3.5 | 9.6 | 0.00 | 0.00 | 0.00 | 20 | 1018.9 |
| 20260507193524 | 71 | 38 | 1.7 | 6.1 | 0.00 | 0.00 | 0.00 | 19 | 1019.1 |
| 20260507193003 | 69 | 332 | 1.7 | 6.1 | 0.00 | 0.00 | 0.00 | 19 | 1019.1 |
| 20260507192503 | 69 | 275 | 1.7 | 6.1 | 0.00 | 0.00 | 0.00 | 20 | 1019.2 |
| 20260507192003 | 68 | 206 | 2.6 | 8.7 | 0.00 | 0.00 | 0.00 | 20 | 1019.4 |
| 20260507191504 | 67 | 219 | 3.5 | 8.7 | 0.00 | 0.00 | 0.00 | 21 | 1019.6 |
| 20260507191003 | 67 | 206 | 3.5 | 7.8 | 0.00 | 0.00 | 0.00 | 22 | 1019.6 |
| 20260507190504 | 68 | 194 | 3.5 | 7.8 | 0.00 | 0.00 | 0.00 | 21 | 1019.7 |
| 20260507190005 | 67 | 198 | 3.5 | 7.0 | 0.00 | 0.00 | 0.00 | 22 | 1019.9 |
| 20260507185524 | 67 | 209 | 3.5 | 7.8 | 0.00 | 0.00 | 0.00 | 22 | 1019.8 |
| 20260507185003 | 65 | 258 | 4.3 | 9.6 | 0.00 | 0.00 | 0.00 | 23 | 1019.8 |
| 20260507184504 | 65 | 248 | 4.3 | 7.8 | 0.00 | 0.00 | 0.00 | 23 | 1020.2 |
| 20260507184024 | 66 | 246 | 3.5 | 8.7 | 0.00 | 0.00 | 0.00 | 23 | 1020.2 |
| 20260507183503 | 64 | 280 | 4.3 | 8.7 | 0.00 | 0.00 | 0.00 | 24 | 1020.3 |
| 20260507183003 | 65 | 305 | 4.3 | 7.8 | 0.00 | 0.00 | 0.00 | 23 | 1020.5 |
| 20260507182503 | 64 | 334 | 3.5 | 7.8 | 0.00 | 0.00 | 0.00 | 24 | 1020.4 |
| 20260507182003 | 64 | 331 | 1.7 | 3.5 | 0.00 | 0.00 | 0.00 | 24 | 1020.5 |
| 20260507181503 | 64 | 333 | 1.7 | 6.1 | 0.00 | 0.00 | 0.00 | 24 | 1020.6 |
| 20260507181003 | 64 | 57 | 1.7 | 6.1 | 0.00 | 0.00 | 0.00 | 25 | 1020.9 |
| 20260507180503 | 64 | 76 | 1.7 | 6.1 | 0.00 | 0.00 | 0.00 | 25 | 1020.9 |
| 20260507180003 | 65 | 89 | 1.7 | 6.1 | 0.00 | 0.00 | 0.00 | 25 | 1021.0 |
| 20260507175503 | 65 | 105 | 1.7 | 5.2 | 0.00 | 0.00 | 0.00 | 25 | 1021.1 |
| 20260507175003 | 63 | 15 | 1.7 | 5.2 | 0.00 | 0.00 | 0.00 | 25 | 1021.3 |
| 20260507174524 | 62 | 1 | 1.7 | 5.2 | 0.00 | 0.00 | 0.00 | 26 | 1021.1 |
| 20260507174003 | 62 | 11 | 1.7 | 5.2 | 0.00 | 0.00 | 0.00 | 26 | 1021.3 |
| 20260507173503 | 62 | 19 | 1.7 | 5.2 | 0.00 | 0.00 | 0.00 | 28 | 1021.3 |
| 20260507173004 | 65 | 80 | 1.7 | 6.1 | 0.00 | 0.00 | 0.00 | 26 | 1021.5 |
| 20260507172503 | 63 | 118 | 2.6 | 6.1 | 0.00 | 0.00 | 0.00 | 27 | 1021.5 |
| 20260507172024 | 61 | 104 | 2.6 | 7.0 | 0.00 | 0.00 | 0.00 | 30 | 1021.7 |
| 20260507171503 | 62 | 51 | 2.6 | 7.0 | 0.00 | 0.00 | 0.00 | 30 | 1021.8 |
| 20260507171003 | 60 | 26 | 1.7 | 7.0 | 0.00 | 0.00 | 0.00 | 30 | 1021.9 |
| 20260507170503 | 62 | 49 | 1.7 | 7.0 | 0.00 | 0.00 | 0.00 | 29 | 1022.1 |
| 20260507170024 | 62 | 64 | 1.7 | 6.1 | 0.00 | 0.00 | 0.00 | 30 | 1022.1 |
| 20260507165524 | 61 | 34 | 1.7 | 6.1 | 0.00 | 0.00 | 0.00 | 31 | 1022.2 |
| 20260507165003 | 59 | 6 | 1.7 | 6.1 | 0.00 | 0.00 | 0.00 | 32 | 1021.9 |
| 20260507164503 | 58 | 19 | 2.6 | 7.0 | 0.00 | 0.00 | 0.00 | 31 | 1022.3 |
| 20260507164003 | 58 | 24 | 3.5 | 7.0 | 0.00 | 0.00 | 0.00 | 33 | 1022.2 |
| 20260507163503 | 57 | 18 | 3.5 | 7.0 | 0.00 | 0.00 | 0.00 | 35 | 1022.3 |
| 20260507163003 | 57 | 19 | 3.5 | 8.7 | 0.00 | 0.00 | 0.00 | 37 | 1022.4 |
| 20260507162503 | 57 | 22 | 3.5 | 8.7 | 0.00 | 0.00 | 0.00 | 37 | 1022.4 |
| 20260507162003 | 57 | 19 | 4.3 | 8.7 | 0.00 | 0.00 | 0.00 | 38 | 1022.4 |
| 20260507161503 | 57 | 19 | 4.3 | 8.7 | 0.00 | 0.00 | 0.00 | 38 | 1022.5 |
| 20260507161024 | 56 | 18 | 4.3 | 7.8 | 0.00 | 0.00 | 0.00 | 39 | 1022.5 |
| 20260507160503 | 56 | 12 | 3.5 | 7.8 | 0.00 | 0.00 | 0.00 | 40 | 1022.8 |
| 20260507160003 | 55 | 8 | 4.3 | 8.7 | 0.00 | 0.00 | 0.00 | 40 | 1022.5 |
| 20260507155503 | 55 | 8 | 4.3 | 8.7 | 0.00 | 0.00 | 0.00 | 40 | 1022.5 |
| 20260507155003 | 55 | 9 | 4.3 | 8.7 | 0.00 | 0.00 | 0.00 | 42 | 1022.5 |
| 20260507154503 | 55 | 4 | 3.5 | 8.7 | 0.00 | 0.00 | 0.00 | 40 | 1022.5 |
| 20260507154003 | 54 | 4 | 3.5 | 8.7 | 0.00 | 0.00 | 0.00 | 41 | 1022.5 |
| 20260507153504 | 54 | 5 | 4.3 | 8.7 | 0.00 | 0.00 | 0.00 | 43 | 1022.8 |
| 20260507153003 | 53 | 4 | 4.3 | 8.7 | 0.00 | 0.00 | 0.00 | 44 | 1023.1 |
| 20260507152503 | 53 | 6 | 4.3 | 8.7 | 0.00 | 0.00 | 0.00 | 45 | 1022.8 |
| 20260507152003 | 53 | 7 | 4.3 | 8.7 | 0.00 | 0.00 | 0.00 | 45 | 1023.0 |
| 20260507151503 | 52 | 8 | 4.3 | 9.6 | 0.00 | 0.00 | 0.00 | 48 | 1022.6 |
| 20260507151003 | 51 | 8 | 4.3 | 9.6 | 0.00 | 0.00 | 0.00 | 48 | 1022.9 |
| 20260507150504 | 51 | 6 | 4.3 | 9.6 | 0.00 | 0.00 | 0.00 | 50 | 1022.9 |
| 20260507150024 | 51 | 5 | 4.3 | 8.7 | 0.00 | 0.00 | 0.00 | 53 | 1022.9 |
| 20260507145503 | 50 | 8 | 4.3 | 8.7 | 0.00 | 0.00 | 0.00 | 52 | 1023.1 |
| 20260507145003 | 50 | 8 | 5.2 | 13.0 | 0.00 | 0.00 | 0.00 | 54 | 1023.2 |
| 20260507144503 | 49 | 7 | 5.2 | 13.0 | 0.00 | 0.00 | 0.00 | 55 | 1023.1 |
| 20260507144003 | 50 | 5 | 5.2 | 12.2 | 0.00 | 0.00 | 0.00 | 54 | 1023.0 |
| 20260507143503 | 49 | 7 | 6.1 | 13.0 | 0.00 | 0.00 | 0.00 | 56 | 1022.9 |
| 20260507143003 | 49 | 4 | 6.1 | 13.0 | 0.00 | 0.00 | 0.00 | 56 | 1023.2 |
| 20260507142503 | 49 | 2 | 5.2 | 12.2 | 0.00 | 0.00 | 0.00 | 57 | 1023.0 |
| 20260507142003 | 49 | 8 | 5.2 | 13.0 | 0.00 | 0.00 | 0.00 | 55 | 1022.9 |
| 20260507141503 | 48 | 8 | 7.0 | 13.0 | 0.00 | 0.00 | 0.00 | 57 | 1023.1 |
| 20260507141003 | 48 | 7 | 7.0 | 14.8 | 0.00 | 0.00 | 0.00 | 58 | 1023.0 |
| 20260507140503 | 47 | 6 | 7.0 | 14.8 | 0.00 | 0.00 | 0.00 | 59 | 1023.0 |
| 20260507140003 | 47 | 7 | 7.0 | 14.8 | 0.00 | 0.00 | 0.00 | 59 | 1022.9 |
| 20260507135503 | 47 | 8 | 7.0 | 13.9 | 0.00 | 0.00 | 0.00 | 59 | 1023.0 |
| 20260507135003 | 47 | 7 | 7.0 | 13.9 | 0.00 | 0.00 | 0.00 | 60 | 1023.0 |
| 20260507134524 | 47 | 10 | 6.1 | 13.0 | 0.00 | 0.00 | 0.00 | 60 | 1022.9 |
| 20260507134003 | 46 | 9 | 6.1 | 13.9 | 0.00 | 0.00 | 0.00 | 59 | 1023.0 |
| 20260507133503 | 46 | 7 | 6.1 | 13.9 | 0.00 | 0.00 | 0.00 | 60 | 1023.1 |
| 20260507133024 | 46 | 8 | 6.1 | 11.3 | 0.00 | 0.00 | 0.00 | 60 | 1023.1 |
| 20260507132525 | 46 | 8 | 6.1 | 13.0 | 0.00 | 0.00 | 0.00 | 59 | 1022.9 |
| 20260507132003 | 45 | 7 | 6.1 | 13.0 | 0.00 | 0.00 | 0.00 | 60 | 1022.9 |
| 20260507131503 | 45 | 9 | 6.1 | 13.0 | 0.00 | 0.00 | 0.00 | 62 | 1022.9 |
| 20260507131003 | 45 | 6 | 6.1 | 13.0 | 0.00 | 0.00 | 0.00 | 63 | 1022.6 |
| 20260507130504 | 44 | 5 | 5.2 | 13.0 | 0.00 | 0.00 | 0.00 | 64 | 1022.8 |
| 20260507130004 | 44 | 6 | 5.2 | 13.0 | 0.00 | 0.00 | 0.00 | 64 | 1022.9 |
| 20260507125503 | 44 | 5 | 5.2 | 11.3 | 0.00 | 0.00 | 0.00 | 64 | 1022.9 |
| 20260507125003 | 44 | 4 | 5.2 | 11.3 | 0.00 | 0.00 | 0.00 | 64 | 1022.9 |
| 20260507124503 | 43 | 3 | 4.3 | 9.6 | 0.00 | 0.00 | 0.00 | 65 | 1022.9 |
| 20260507124024 | 43 | 1 | 3.5 | 7.8 | 0.00 | 0.00 | 0.00 | 67 | 1022.8 |
| 20260507123504 | 41 | 357 | 3.5 | 8.7 | 0.00 | 0.00 | 0.00 | 69 | 1022.8 |
| 20260507123003 | 41 | 357 | 3.5 | 8.7 | 0.00 | 0.00 | 0.00 | 68 | 1022.8 |
| 20260507122503 | 41 | 355 | 4.3 | 7.8 | 0.00 | 0.00 | 0.00 | 68 | 1022.6 |
| 20260507122024 | 41 | 353 | 4.3 | 7.8 | 0.00 | 0.00 | 0.00 | 68 | 1022.5 |
| 20260507121503 | 41 | 350 | 4.3 | 7.0 | 0.00 | 0.00 | 0.00 | 68 | 1022.4 |
| 20260507121003 | 40 | 346 | 3.5 | 7.0 | 0.00 | 0.00 | 0.00 | 67 | 1022.5 |
| 20260507120524 | 41 | 344 | 2.6 | 6.1 | 0.00 | 0.00 | 0.00 | 67 | 1022.3 |
| 20260507120004 | 41 | 343 | 1.7 | 5.2 | 0.00 | 0.00 | 0.00 | 66 | 1022.4 |
| 20260507115503 | 41 | 343 | 1.7 | 3.5 | 0.00 | 0.00 | 0.00 | 66 | 1022.5 |
| 20260507115003 | 41 | 343 | 1.7 | 3.5 | 0.00 | 0.00 | 0.00 | 65 | 1022.5 |
| 20260507114503 | 41 | 343 | 1.7 | 2.6 | 0.00 | 0.00 | 0.00 | 65 | 1022.3 |
| 20260507114003 | 41 | 343 | 0.9 | 2.6 | 0.00 | 0.00 | 0.00 | 64 | 1022.6 |
| 20260507113503 | 41 | 343 | 0.0 | 2.6 | 0.00 | 0.00 | 0.00 | 62 | 1022.2 |
| 20260507113004 | 41 | 342 | 1.7 | 5.2 | 0.00 | 0.00 | 0.00 | 62 | 1022.5 |
| 20260507112503 | 41 | 342 | 2.6 | 5.2 | 0.00 | 0.00 | 0.00 | 60 | 1022.6 |
| 20260507112003 | 41 | 341 | 2.6 | 5.2 | 0.00 | 0.00 | 0.00 | 59 | 1022.5 |
| 20260507111504 | 41 | 341 | 2.6 | 5.2 | 0.00 | 0.00 | 0.00 | 57 | 1022.5 |
| 20260507111004 | 40 | 342 | 2.6 | 3.5 | 0.00 | 0.00 | 0.00 | 56 | 1022.4 |
| 20260507110503 | 40 | 343 | 2.6 | 5.2 | 0.00 | 0.00 | 0.00 | 54 | 1022.4 |
| 20260507110004 | 40 | 343 | 2.6 | 5.2 | 0.00 | 0.00 | 0.00 | 52 | 1022.5 |
| 20260507105503 | 40 | 343 | 2.6 | 5.2 | 0.00 | 0.00 | 0.00 | 50 | 1022.4 |
| 20260507105003 | 41 | 343 | 2.6 | 3.5 | 0.00 | 0.00 | 0.00 | 49 | 1022.4 |
| 20260507104524 | 41 | 344 | 1.7 | 3.5 | 0.00 | 0.00 | 0.00 | 47 | 1022.4 |
| 20260507104024 | 41 | 347 | 1.7 | 5.2 | 0.00 | 0.00 | 0.00 | 46 | 1022.5 |
| 20260507103524 | 41 | 348 | 2.6 | 5.2 | 0.00 | 0.00 | 0.00 | 45 | 1022.4 |
| 20260507103003 | 42 | 349 | 3.5 | 7.0 | 0.00 | 0.00 | 0.00 | 43 | 1022.4 |
| 20260507102503 | 42 | 350 | 3.5 | 7.0 | 0.00 | 0.00 | 0.00 | 42 | 1022.4 |
| 20260507102003 | 42 | 349 | 2.6 | 5.2 | 0.00 | 0.00 | 0.00 | 41 | 1022.5 |
| 20260507101503 | 42 | 350 | 2.6 | 7.0 | 0.00 | 0.00 | 0.00 | 40 | 1022.3 |
| 20260507101003 | 42 | 351 | 4.3 | 8.7 | 0.00 | 0.00 | 0.00 | 40 | 1022.4 |
| 20260507100503 | 42 | 349 | 5.2 | 8.7 | 0.00 | 0.00 | 0.00 | 40 | 1022.2 |
| 20260507100024 | 42 | 347 | 5.2 | 7.8 | 0.00 | 0.00 | 0.00 | 41 | 1022.1 |
| 20260507095503 | 42 | 345 | 4.3 | 7.0 | 0.00 | 0.00 | 0.00 | 40 | 1022.3 |
| 20260507095003 | 42 | 347 | 4.3 | 6.1 | 0.00 | 0.00 | 0.00 | 41 | 1022.2 |
| 20260507094503 | 42 | 350 | 3.5 | 6.1 | 0.00 | 0.00 | 0.00 | 40 | 1022.1 |
| 20260507094025 | 42 | 352 | 2.6 | 5.2 | 0.00 | 0.00 | 0.00 | 40 | 1022.2 |
| 20260507093503 | 43 | 353 | 2.6 | 5.2 | 0.00 | 0.00 | 0.00 | 39 | 1022.2 |
| 20260507093003 | 44 | 353 | 1.7 | 5.2 | 0.00 | 0.00 | 0.00 | 38 | 1022.2 |
| 20260507092504 | 44 | 353 | 2.6 | 7.0 | 0.00 | 0.00 | 0.00 | 38 | 1022.1 |
| 20260507092004 | 44 | 353 | 3.5 | 7.0 | 0.00 | 0.00 | 0.00 | 38 | 1022.1 |
| 20260507091503 | 44 | 353 | 4.3 | 7.0 | 0.00 | 0.00 | 0.00 | 37 | 1021.9 |
| 20260507091003 | 45 | 355 | 4.3 | 7.0 | 0.00 | 0.00 | 0.00 | 37 | 1022.1 |
| 20260507090503 | 45 | 359 | 3.5 | 7.0 | 0.00 | 0.00 | 0.00 | 36 | 1022.1 |
| 20260507090004 | 46 | 3 | 3.5 | 6.1 | 0.00 | 0.00 | 0.00 | 36 | 1022.2 |
| 20260507085503 | 45 | 5 | 2.6 | 5.2 | 0.00 | 0.00 | 0.00 | 36 | 1021.9 |
| 20260507085003 | 44 | 5 | 1.7 | 3.5 | 0.00 | 0.00 | 0.00 | 38 | 1022.3 |
| 20260507084524 | 44 | 6 | 1.7 | 3.5 | 0.00 | 0.00 | 0.00 | 37 | 1022.3 |
| 20260507084003 | 46 | 7 | 2.6 | 5.2 | 0.00 | 0.00 | 0.00 | 36 | 1021.8 |
| 20260507083503 | 46 | 9 | 1.7 | 5.2 | 0.00 | 0.00 | 0.00 | 35 | 1021.8 |
| 20260507083004 | 46 | 10 | 1.7 | 2.6 | 0.00 | 0.00 | 0.00 | 34 | 1021.9 |
| 20260507082503 | 47 | 12 | 1.7 | 3.5 | 0.00 | 0.00 | 0.00 | 33 | 1021.8 |
| 20260507082024 | 46 | 20 | 1.7 | 5.2 | 0.00 | 0.00 | 0.00 | 33 | 1021.9 |
| 20260507081503 | 45 | 27 | 2.6 | 6.1 | 0.00 | 0.00 | 0.00 | 34 | 1022.1 |
| 20260507081003 | 45 | 17 | 2.6 | 6.1 | 0.00 | 0.00 | 0.00 | 35 | 1021.7 |
| 20260507080504 | 46 | 339 | 4.3 | 7.8 | 0.00 | 0.00 | 0.00 | 34 | 1021.5 |
| 20260507080004 | 47 | 334 | 6.1 | 7.8 | 0.00 | 0.00 | 0.00 | 33 | 1021.2 |
| 20260507075503 | 47 | 334 | 7.0 | 8.7 | 0.00 | 0.00 | 0.00 | 33 | 1021.3 |
| 20260507075003 | 47 | 330 | 7.0 | 8.7 | 0.00 | 0.00 | 0.00 | 33 | 1021.5 |
| 20260507074503 | 47 | 326 | 7.0 | 8.7 | 0.00 | 0.00 | 0.00 | 33 | 1021.3 |
| 20260507074003 | 47 | 327 | 7.0 | 8.7 | 0.00 | 0.00 | 0.00 | 33 | 1021.1 |
| 20260507073503 | 48 | 329 | 7.0 | 8.7 | 0.00 | 0.00 | 0.00 | 33 | 1021.5 |
| 20260507073024 | 48 | 333 | 7.0 | 8.7 | 0.00 | 0.00 | 0.00 | 32 | 1021.1 |
| 20260507072524 | 47 | 336 | 6.1 | 7.8 | 0.00 | 0.00 | 0.00 | 33 | 1021.3 |
| 20260507072003 | 46 | 336 | 5.2 | 7.0 | 0.00 | 0.00 | 0.00 | 35 | 1021.0 |
| 20260507071504 | 46 | 338 | 5.2 | 7.0 | 0.00 | 0.00 | 0.00 | 35 | 1021.1 |
| 20260507071003 | 47 | 339 | 6.1 | 7.0 | 0.00 | 0.00 | 0.00 | 35 | 1021.2 |
| 20260507070524 | 47 | 340 | 6.1 | 7.8 | 0.00 | 0.00 | 0.00 | 35 | 1021.2 |
| 20260507070004 | 47 | 339 | 7.0 | 8.7 | 0.00 | 0.00 | 0.00 | 35 | 1021.1 |
| 20260507065503 | 47 | 337 | 6.1 | 8.7 | 0.00 | 0.00 | 0.00 | 35 | 1021.1 |
| 20260507065003 | 46 | 338 | 6.1 | 8.7 | 0.00 | 0.00 | 0.00 | 36 | 1021.0 |
| 20260507064503 | 47 | 341 | 7.0 | 8.7 | 0.00 | 0.00 | 0.00 | 36 | 1021.2 |
| 20260507064003 | 47 | 342 | 7.0 | 8.7 | 0.00 | 0.00 | 0.00 | 35 | 1020.9 |
| 20260507063524 | 47 | 344 | 7.0 | 8.7 | 0.00 | 0.00 | 0.00 | 35 | 1021.1 |
| 20260507063004 | 47 | 346 | 7.0 | 9.6 | 0.00 | 0.00 | 0.00 | 35 | 1021.0 |
| 20260507062503 | 47 | 346 | 7.0 | 9.6 | 0.00 | 0.00 | 0.00 | 35 | 1021.0 |
| 20260507062003 | 47 | 343 | 6.1 | 8.7 | 0.00 | 0.00 | 0.00 | 36 | 1020.9 |
| 20260507061503 | 47 | 342 | 6.1 | 8.7 | 0.00 | 0.00 | 0.00 | 36 | 1020.8 |
| 20260507061003 | 48 | 342 | 7.0 | 8.7 | 0.00 | 0.00 | 0.00 | 36 | 1020.9 |
| 20260507060503 | 48 | 344 | 7.0 | 9.6 | 0.00 | 0.00 | 0.00 | 36 | 1021.0 |
| 20260507060003 | 48 | 344 | 7.0 | 9.6 | 0.00 | 0.00 | 0.00 | 36 | 1020.9 |
| 20260507055503 | 48 | 343 | 6.1 | 9.6 | 0.00 | 0.00 | 0.00 | 36 | 1020.9 |
| 20260507055003 | 49 | 344 | 6.1 | 9.6 | 0.00 | 0.00 | 0.00 | 35 | 1020.6 |
| 20260507054504 | 49 | 345 | 7.0 | 9.6 | 0.00 | 0.00 | 0.00 | 35 | 1020.8 |
| 20260507054003 | 49 | 346 | 7.0 | 8.7 | 0.00 | 0.00 | 0.00 | 36 | 1020.8 |
| 20260507053503 | 49 | 345 | 6.1 | 8.7 | 0.00 | 0.00 | 0.00 | 36 | 1020.9 |
| 20260507053003 | 50 | 342 | 7.0 | 8.7 | 0.00 | 0.00 | 0.00 | 37 | 1020.8 |
| 20260507052503 | 50 | 340 | 6.1 | 8.7 | 0.00 | 0.00 | 0.00 | 36 | 1020.6 |
| 20260507052003 | 51 | 340 | 5.2 | 7.8 | 0.00 | 0.00 | 0.00 | 36 | 1020.8 |
| 20260507051503 | 51 | 341 | 5.2 | 7.8 | 0.00 | 0.00 | 0.00 | 37 | 1020.6 |
| 20260507051024 | 51 | 341 | 6.1 | 7.8 | 0.00 | 0.00 | 0.00 | 37 | 1020.6 |
| 20260507050524 | 52 | 342 | 5.2 | 7.8 | 0.00 | 0.00 | 0.00 | 36 | 1020.6 |
| 20260507050003 | 52 | 344 | 5.2 | 7.8 | 0.00 | 0.00 | 0.00 | 37 | 1020.5 |
| 20260507045503 | 53 | 343 | 5.2 | 7.8 | 0.00 | 0.00 | 0.00 | 37 | 1020.4 |
| 20260507045003 | 53 | 341 | 5.2 | 7.0 | 0.00 | 0.00 | 0.00 | 38 | 1020.2 |
| 20260507044503 | 53 | 340 | 5.2 | 9.6 | 0.00 | 0.00 | 0.00 | 40 | 1020.3 |